Weather in Foix

France     42˚57′50″N   1˚36′12″E
temp.,
°C
wind,
m/s
gust,
m/s
humid.,
%
clouds,
%
prec.,
mm/h
press.,
hPa
HPBL,
m
3 december, thu
thu301:00sw358987 1.4 1017171
04:00−1˚ssw338642 0.0 101662
07:00+2˚ssw227967 0.0 101441
10:00+5˚ssw228268 0.0 101159
13:00+9˚nnw117351 0.0 1008445
16:00+7˚ene1189100 0.0 100571
19:00+4˚s1290100 0.0 100323
22:00+2˚s2280100 0.0 100035
4 december, fri
fri401:00+2˚ssw228098 0.0 99634
04:00+1˚ssw32812 0.0 99346
07:00+1˚ssw239836 3.1 993173
10:00+2˚ssw1294100 3.6 993271
13:00+3˚nw1289100 5.4 992495
16:00+2˚se1195100 0.7 991154
19:00sw1288100 0.8 99237
22:00sw239596 2.1 994101
5 december, sat
sat501:00−1˚ssw229082 2.2 99431
04:00−1˚ssw228771 0.0 99541
07:00−1˚s239376 0.6 99671
10:00sw239780 2.1 997166
13:00+4˚w377768 2.5 9981080
16:00+3˚w268918 0.3 998603
19:00−1˚sw228657 0.3 99928
22:00+1˚ssw3794100 2.7 1000395
6 december, sun
sun601:00+1˚ssw2793100 6.4 1000367
04:00+1˚ssw228798 0.5 100046
07:00+2˚wsw3108599 1.2 1001708
10:00+3˚ssw258584 0.0 1001368
13:00+6˚w128353 0.0 1000236
16:00+5˚e118899 0.3 100024
19:00w41198100 3.3 1003773
22:00+1˚sw3109299 1.6 1005551
7 december, mon
mon701:00ssw358998 1.8 1007152
04:00−1˚ssw238476 0.1 100833
07:00−2˚s228041 0.1 100828
10:00+2˚s227827 0.0 100956
13:00+5˚w257828 0.0 1009739
16:00+5˚sw018815 0.0 100970
19:00s22879 0.0 101124
22:00s337888 0.0 101230